Home   Weather   Bahía Blanca   Past weeks

Flag for Argentina Past Weather in Bahía Blanca, Buenos Aires, Argentina — Yesterday and Last 2 Weeks

Now
64 °F

Passing clouds.


Feels Like: 64 °F
Forecast: 65 / 84 °F
Wind: 20 mph from North

Location: Mar Del Plata Aerodrome

Current Time: Dec 10, 2016 at 4:13:23 am

Latest Report: Dec 10, 2016 at 3:00 am


Visibility: N/A

Pressure: 29.56 "Hg

Humidity: 52%

Dew Point: 46 °F

Location of Bahía BlancaLocation

Past Weather in Bahía Blanca — Graph

°F

Bahía Blanca Temperature Yesterday

Maximum temperature yesterday: 84 °F (at 2:00 pm)
Minimum temperature yesterday: 46 °F (at 12:00 am)
Average temperature yesterday: 67 °F

High & Low Weather Summary for the Past Weeks

 TemperatureHumidityPressure
High93 °F (Dec 2, 2:00 pm)100% (Nov 25, 5:00 am)31.90 "Hg (Nov 25, 5:00 am)
Low46 °F (Nov 29, 2:00 am)23% (Nov 29, 1:00 pm)29.56 "Hg (Dec 10, 3:00 am)
Average66 °F67%29.89 "Hg
* Reported Nov 25 3:00 am — Dec 10 3:00 am, Bahía Blanca, Weather by CustomWeather, © 2016

Note: Actual official high and low records may vary slightly from our data, if they occured in-between our weather recording intervals... More about our weather records

Advertising

Bahía Blanca Weather History for the Previous 24 Hours

Scroll right to see more
 ConditionsComfort  
Time TempWeatherWind HumidityBarometerVisibility
3:00 am
Sat, Dec 10
64 °FPassing clouds.20 mph52%29.56 "HgN/A
2:00 am66 °FPassing clouds.17 mph52%29.59 "HgN/A
1:00 am66 °FPassing clouds.17 mph56%29.62 "HgN/A
12:00 am66 °FThunderstorms. Partly cloudy.23 mph56%29.62 "HgN/A
11:00 pm
Fri, Dec 9
72 °FPassing clouds.18 mph41%29.65 "HgN/A
10:00 pm73 °FPassing clouds.17 mph38%29.65 "HgN/A
9:00 pm75 °FPassing clouds.18 mph39%29.65 "HgN/A
8:00 pm77 °FSunny.17 mph34%29.65 "Hg10 mi
7:00 pm81 °FSunny.23 mph30%29.65 "Hg10 mi
6:00 pm82 °FSunny.23 mph25%29.65 "Hg10 mi
5:00 pm84 °FScattered clouds.24 mph25%29.65 "HgN/A
4:00 pm84 °FScattered clouds.23 mph27%29.68 "HgN/A
3:00 pm84 °FSunny.25 mph25%29.71 "Hg10 mi
2:00 pm84 °FSunny.24 mph27%29.74 "Hg10 mi
1:00 pm82 °FSunny.25 mph26%29.77 "Hg10 mi
12:00 pm81 °FSunny.28 mph28%29.77 "Hg10 mi
11:00 am75 °FSunny.24 mph39%29.80 "Hg10 mi
10:00 am72 °FSunny.29 mph41%29.83 "Hg10 mi
9:00 am66 °FSunny.25 mph56%29.83 "Hg10 mi
8:00 am61 °FSunny.23 mph68%29.86 "Hg10 mi
7:00 am55 °FSunny.18 mph77%29.86 "Hg10 mi
6:00 am50 °FClear.14 mph88%29.86 "Hg6 mi
5:00 am48 °FClear.14 mph87%29.86 "Hg6 mi
4:00 am46 °FClear.17 mph87%29.86 "Hg4 mi
Weather by CustomWeather, © 2016

See weather overviewHow to use our weather pages